Presure
203 183 144 211 205 179 218 202 191 267 258 229 242 249 245 258 283 303 350 397 453 411 396 249 276 251 272 218 188 159 180 192 181 188 100 122 188 182 189 164 88 83 186 203 152 167 148
198 195 191 196 204 195 214 201 215 273 233 216 252 243 246 266 270 288 348 370 442 424 387 376 253 264 236 237 179 198 180 180 130 197 182 98 174 189 191 171 189 88 158 133 115 152 85
183 194 207 205 208 200 207 194 233 258 232 243 240 240 256 255 282 289 342 369 444 435 420 375 261 286 265 112 208 190 199 178 180 176 188 172 100 191 200 197 184 188 96 194 185 89 195
183 201 199 206 212 214 201 203 280 235 216 237 230 242 239 255 276 283 312 376 391 460 423 385 338 259 230 88 138 203 202 186 168 175 169 182 185 122 198 198 191 190 199 119 157 126 160
181 197 174 200 203 214 191 206 280 229 241 237 238 242 236 253 265 288 308 382 390 433 469 437 340 242 129 118 234 205 205 198 194 183 173 187 187 181 191 182 188 172 137 210 181 107 193
181 143 207 196 207 207 194 211 264 228 214 243 239 237 253 253 258 276 292 333 392 383 419 412 390 240 286 318 233 154 207 195 191 197 194 172 189 110 176 176 181 128 218 188 182 203 180
184 197 205 194 208 194 200 212 249 228 229 232 231 228 241 242 254 268 285 315 379 371 395 434 206 204 70 90 159 224 143 202 196 203 204 181 176 176 171 98 119 207 179 195 176 96 163
181 198 205 194 212 192 197 216 236 230 229 231 225 241 234 238 255 263 280 306 361 372 388 453 112 85 277 222 318 218 197 154 203 200 204 193 177 169 170 163 166 90 190 131 169 128 162
188 197 204 193 213 192 196 218 223 235 219 235 228 218 230 239 249 255 273 300 336 377 391 406 444 236 256 222 206 271 221 209 166 186 206 180 169 168 167 115 84 183 162 192 161 179 161
192 190 205 196 213 194 197 216 223 241 222 231 227 242 231 221 238 253 264 293 329 408 414 403 454 220 252 280 207 311 242 215 146 161 199 172 176 176 174 185 153 183 180 97 172 202 203
194 192 206 202 212 196 196 216 219 250 224 232 235 226 215 230 237 242 263 287 323 382 461 454 259 218 237 272 227 208 295 215 211 148 162 178 174 70 178 178 175 175 185 183 192 172 183
194 194 207 205 203 198 195 215 218 251 229 218 226 219 218 228 230 239 258 269 309 356 397 388 249 224 223 268 219 231 212 226 213 203 173 175 167 179 186 199 171 179 194 164 85 155 94
194 207 209 207 190 199 195 210 218 247 217 220 226 228 222 227 224 232 241 273 305 355 403 229 234 210 237 244 269 258 211 295 225 216 196 179 182 133 131 136 174 174 187 186 175 183 169
196 210 208 210 189 197 195 209 222 255 233 217 149 223 217 227 218 231 229 266 305 352 218 222 208 207 240 250 268 272 214 292 264 203 200 184 184 173 170 81 123 172 180 173 177 92 191
197 211 208 211 190 197 198 209 228 243 234 220 227 220 220 225 219 227 235 90 305 208 207 206 191 207 225 250 266 280 214 216 254 209 197 197 195 190 182 184 139 90 178 176 162 171 178
201 211 207 201 191 198 209 210 225 248 240 221 227 223 197 218 230 224 234 150 190 153 204 195 123 202 192 189 266 272 238 209 277 228 199 195 194 191 190 186 163 175 168 168 115 176 172
204 211 208 207 194 195 214 213 224 239 247 226 222 217 217 219 228 221 228 235 243 199 200 202 195 191 201 186 227 256 262 234 211 227 203 195 190 189 185 179 194 190 184 140 190 141 152
204 207 210 198 207 193 215 215 215 201 253 220 215 205 225 213 216 221 227 230 239 200 196 197 201 198 187 181 191 211 226 254 254 199 183 201 195 195 197 187 190 196 185 173 185 160 185
207 204 207 195 223 195 214 216 207 223 237 238 219 215 224 227 211 216 237 241 230 239 198 194 198 199 200 185 186 189 225 243 250 249 216 181 195 191 194 197 194 187 181 161 189 194 155
208 204 179 196 203 198 211 217 219 197 286 233 233 214 214 214 232 220 230 227 228 239 242 199 164 202 200 200 194 184 189 223 229 222 203 194 186 190 188 193 166 197 186 173 181 196 173
189 169 201 193 203 193 175 220 218 219 253 168 168 220 216 219 138 230 225 222 228 232 246 222 195 198 198 197 202 191 185 190 191 190 206 191 198 195 177 190 182 182 178 162 196 195 156
194 153 152 165 199 199 202 217 220 231 163 191 167 229 212 220 218 216 210 220 225 223 226 226 247 199 198 195 198 197 199 194 189 189 191 188 186 185 199 188 179 187 184 181 192 188 188
193 142 152 182 157 182 198 208 221 192 232 171 248 207 231 203 219 172 208 182 215 218 232 220 226 230 242 208 198 197 197 198 202 200 196 193 192 191 193 192 180 189 189 177 195 183 198
188 180 143 153 206 171 196 205 208 230 225 185 260 174 228 218 232 220 221 203 200 215 227 224 228 158 226 227 171 213 215 195 194 196 194 195 195 195 195 195 190 199 199 190 194 187 143
194 188 203 172 185 201 202 201 203 213 254 307 186 205 186 230 228 236 103 171 195 105 220 219 213 220 224 223 235 227 233 238 228 234 235 234 235 241 238 230 236 237 233 225 226 229 231
199 193 193 161 199 202 200 200 207 203 220 285 280 192 226 241 207 230 237 221 164 208 210 210 224 220 209 220 218 220 228 226 228 218 221 225 137 217 226 232 228 231 140 177 236 140 128
202 190 193 185 184 144 169 198 196 199 205 229 300 243 234 214 243 238 231 241 225 219 220 219 217 212 215 218 213 215 208 195 227 220 212 216 221 216 224 222 177 216 215 196 147 157 190
201 201 195 199 178 174 148 186 196 193 192 205 237 345 265 258 212 182 244 231 206 185 223 233 228 121 220 218 219 226 216 213 214 144 223 223 162 168 149 221 122 211 147 173 130 170 208
204 201 189 197 198 190 151 150 200 194 184 202 204 218 347 297 271 225 200 183 244 241 237 169 222 233 237 135 217 205 233 208 207 190 224 201 142 221 222 150 209 206 217 152 204 214 213
Wind_Speed
50 52 38 53 55 52 59 65 63 53 45 53 56 54 55 54 61 68 64 41 41 65 75 94 103 100 112 90 86 77 85 77 72 65 53 43 52 54 53 47 40 32 46 45 37 45 43
49 55 47 49 56 56 56 64 68 42 45 55 47 45 48 58 60 61 64 46 28 49 77 85 93 98 87 92 78 92 88 80 41 68 62 47 62 57 55 52 47 37 40 40 36 44 35
47 51 51 52 56 57 58 63 67 38 46 43 47 47 54 56 66 70 67 48 22 34 64 82 96 100 93 23 97 92 91 81 72 72 66 68 35 52 48 46 54 42 43 39 41 43 32
46 50 49 52 54 55 57 64 43 40 53 42 46 45 45 56 70 61 71 39 33 26 38 77 90 90 83 22 60 95 91 86 75 76 71 67 58 43 45 42 42 37 36 38 48 38 29
44 47 41 53 53 51 58 62 35 44 39 44 41 43 41 52 64 71 69 32 22 14 27 41 70 81 37 51 96 95 90 82 78 81 75 64 56 54 42 45 35 48 37 32 48 36 33
43 32 48 52 51 49 57 60 36 43 48 41 38 43 51 55 59 68 66 71 20 12 11 32 70 79 86 97 98 64 92 82 80 79 77 68 54 47 46 43 40 43 39 40 44 29 27
42 45 46 50 49 48 55 58 44 42 41 36 33 32 44 50 58 66 70 72 27 17 15 22 27 76 18 26 55 99 53 83 81 76 69 64 57 45 53 40 38 35 46 37 48 47 47
39 42 44 48 47 47 53 55 53 35 32 33 37 45 43 48 61 63 67 73 47 29 13 9 29 16 90 81 93 91 81 58 74 66 71 62 54 61 59 62 39 33 36 44 42 38 29
38 40 42 46 44 45 50 52 49 29 33 26 28 29 42 50 58 60 64 69 63 20 12 8 16 83 84 76 75 97 90 82 55 59 68 54 62 62 58 35 23 40 60 39 35 31 51
37 36 39 44 41 42 47 50 45 25 24 21 22 26 36 25 50 60 57 64 63 23 13 17 21 72 76 78 75 84 98 86 52 51 66 56 59 59 53 47 45 43 53 21 39 30 30
37 34 37 41 39 39 43 46 41 17 21 21 21 21 20 40 48 50 55 58 61 28 7 21 72 67 68 71 77 73 89 81 81 61 50 54 54 10 46 47 47 61 42 33 29 33 26
36 33 34 38 35 35 40 43 40 17 15 23 19 20 24 35 41 46 53 41 53 29 13 33 66 61 62 67 74 78 70 83 82 75 62 63 62 54 60 65 59 43 45 53 16 53 17
34 33 32 34 32 32 37 38 37 19 24 18 15 15 20 27 33 42 40 42 39 19 7 61 60 57 59 60 63 70 64 79 78 73 67 61 61 42 34 36 45 39 40 45 43 35 52
31 30 31 30 30 29 34 35 34 14 12 14 7 12 11 21 23 38 27 37 27 23 55 56 53 50 50 52 54 58 59 71 78 68 72 65 51 53 48 16 33 50 43 46 35 23 36
28 28 30 26 28 26 30 31 32 22 15 8 8 6 8 15 16 32 33 15 31 50 49 51 46 43 40 41 44 49 55 58 70 68 63 66 67 68 62 61 52 21 50 40 45 38 39
27 26 28 22 26 24 25 26 31 20 16 5 1 3 8 8 19 19 31 13 15 33 46 45 28 46 44 39 36 42 48 53 61 72 61 61 66 65 65 64 55 49 54 43 34 42 45
28 24 25 20 23 21 19 21 29 27 19 12 4 1 3 8 21 15 28 28 24 50 47 46 46 45 47 49 37 34 41 48 53 62 61 59 57 61 59 56 62 59 43 44 50 43 44
26 23 23 16 20 19 16 18 24 19 22 11 7 3 5 8 8 12 22 28 27 52 48 47 43 44 46 47 44 43 41 41 45 53 51 58 58 60 62 58 55 58 43 50 50 62 44
27 21 22 17 19 16 15 14 17 21 13 22 16 10 13 4 11 7 22 31 32 30 52 46 49 48 47 45 47 47 44 43 47 50 60 50 56 53 54 53 53 49 43 51 49 53 50
28 22 18 18 17 13 13 10 17 13 23 23 26 10 13 10 8 13 18 21 29 29 33 54 40 50 48 48 49 46 47 47 47 54 57 52 48 50 54 61 51 63 50 49 44 55 50
32 26 25 22 17 14 8 9 13 15 9 14 4 21 14 20 11 13 17 20 27 29 35 44 52 51 49 48 49 48 44 45 48 48 55 49 56 55 48 53 50 47 41 48 57 55 54
37 21 19 17 19 15 6 8 12 15 4 5 4 28 16 21 21 17 17 20 27 29 31 37 35 58 54 50 50 49 50 49 48 47 49 47 47 46 57 53 46 52 51 47 56 56 57
41 23 22 26 15 13 11 3 9 6 10 4 36 6 34 7 26 23 17 22 26 23 33 37 32 41 33 48 54 52 52 52 54 54 52 51 51 52 56 56 48 56 59 51 62 57 67
43 34 23 21 25 17 17 8 3 11 8 8 41 6 30 24 37 33 33 15 23 20 25 27 27 28 34 29 22 42 49 53 53 55 55 56 56 57 56 57 53 62 62 59 62 62 49
50 41 40 28 27 25 19 15 10 4 11 46 10 15 3 28 30 42 20 19 26 16 21 25 26 28 24 24 24 32 30 29 37 28 29 37 38 39 39 50 49 49 51 63 63 57 56
57 48 44 29 34 28 25 20 13 11 5 3 45 10 21 33 14 31 45 35 19 20 22 19 26 32 29 28 29 25 22 31 36 43 36 40 21 40 31 32 39 42 34 37 45 32 30
63 51 46 39 33 23 22 25 22 16 10 6 20 38 27 15 31 36 35 41 40 33 37 34 32 28 29 31 33 31 28 25 26 37 41 40 40 42 37 41 39 44 44 44 42 47 49
67 62 51 50 37 31 23 27 27 23 19 11 8 48 37 42 27 28 40 34 28 18 29 38 43 26 36 34 32 38 35 32 32 34 33 38 30 31 34 35 35 46 42 40 42 48 52
71 65 53 53 51 42 29 24 32 28 20 18 15 11 43 44 47 27 14 15 42 43 46 25 30 41 47 29 39 27 38 31 28 35 35 36 36 41 43 37 45 46 49 38 48 51 54
Wind_Direction
302 304 296 312 313 307 314 310 312 323 314 315 318 323 322 329 338 344 336 315 259 233 221 219 221 217 213 210 212 223 219 215 219 218 225 219 215 223 225 219 221 221 228 232 235 236 243
304 304 307 312 314 314 315 312 317 321 320 315 324 327 334 349 343 342 341 329 265 235 217 211 216 214 212 205 207 210 220 219 214 212 211 228 215 216 218 222 217 222 225 225 229 240 247
302 305 311 313 315 317 316 314 326 327 321 329 330 336 346 353 353 348 349 332 295 237 224 212 212 213 209 175 207 214 212 218 213 216 209 214 226 212 213 209 218 220 223 217 229 238 237
303 308 311 313 316 319 316 319 325 325 324 330 330 339 339 1 2 354 354 329 338 243 223 210 207 207 204 217 204 208 211 213 219 217 218 212 210 227 211 211 214 210 212 227 231 227 240
303 309 312 314 318 322 316 322 330 320 330 327 335 341 350 6 4 8 1 341 335 331 221 204 206 199 195 211 202 206 211 210 206 211 218 210 208 207 205 205 209 219 219 228 222 229 234
304 305 311 314 320 323 319 327 334 327 328 332 338 349 3 7 8 9 5 6 353 18 219 205 204 194 198 201 202 209 210 209 208 209 210 214 207 214 201 204 210 220 243 214 217 234 231
304 309 310 315 321 321 322 329 335 329 332 335 339 347 10 10 10 8 8 6 10 347 357 211 181 196 212 183 184 203 217 208 209 209 208 207 206 201 202 208 221 230 196 223 222 244 235
304 308 309 314 320 321 322 331 336 326 336 336 341 7 10 11 7 9 8 5 5 356 338 199 178 201 196 195 197 203 209 213 208 209 208 204 199 205 206 216 213 231 217 212 243 224 224
300 306 309 313 318 322 323 331 336 328 341 341 356 350 14 11 15 12 10 7 2 346 288 215 205 191 192 192 196 202 205 205 205 208 207 203 204 207 208 235 244 229 214 228 226 223 237
297 304 307 311 316 322 325 331 336 324 335 347 352 4 24 15 26 15 13 7 3 14 260 207 219 192 189 192 196 199 203 202 207 202 205 200 205 209 211 215 208 229 224 245 218 246 235
293 303 304 308 313 322 327 329 335 315 335 354 10 7 11 26 28 26 13 7 4 23 8 191 180 191 185 190 196 202 203 202 203 206 197 208 206 251 207 205 209 222 214 205 220 218 231
289 299 301 306 311 322 326 329 333 316 329 0 348 13 33 32 35 32 23 21 1 5 27 167 178 185 186 190 196 200 200 202 204 203 203 205 205 209 218 224 216 221 237 211 256 232 275
285 293 297 302 314 321 325 330 330 316 329 349 358 27 36 43 50 40 35 15 1 2 112 175 176 185 186 192 195 201 201 202 206 206 209 211 211 213 219 214 219 223 235 237 223 234 240
281 288 292 298 311 321 324 327 327 299 291 343 119 18 23 50 63 60 58 34 20 39 175 176 183 185 183 192 195 200 202 201 204 206 204 213 220 216 211 254 222 211 205 207 216 241 249
275 281 286 292 308 319 321 325 329 331 259 314 3 351 46 65 64 81 62 188 40 170 183 181 181 182 185 190 195 197 200 203 204 207 209 214 215 218 221 223 223 251 230 214 215 225 226
265 272 280 286 304 316 316 325 328 323 237 261 29 29 103 54 89 91 80 130 95 177 185 188 194 179 186 189 194 193 197 204 200 207 211 212 217 221 224 224 214 232 209 218 245 230 229
257 261 271 277 295 315 317 324 328 334 218 225 205 75 150 93 113 115 105 99 110 182 188 193 193 192 182 186 185 191 192 201 209 208 213 217 218 223 226 225 231 234 230 231 244 236 241
248 251 261 266 278 306 318 326 329 337 213 240 219 224 143 137 130 146 127 122 117 185 191 194 200 197 200 189 190 192 196 194 197 198 204 214 218 221 224 224 228 232 234 226 243 234 246
238 239 248 259 276 294 314 330 332 320 225 210 201 199 163 190 166 178 134 122 144 148 193 199 199 202 200 204 199 197 198 194 193 196 207 209 217 219 222 227 231 234 235 228 245 252 245
223 225 237 248 254 276 310 331 325 316 217 214 191 214 191 201 181 181 179 165 149 148 152 200 206 205 205 205 205 206 204 204 201 205 211 214 216 219 221 223 227 229 230 226 249 253 233
224 241 222 238 237 263 269 323 323 324 215 195 69 199 194 183 196 174 180 190 155 155 147 187 206 212 212 211 212 212 217 216 213 214 215 219 221 224 224 232 235 237 237 240 251 250 240
218 232 243 237 224 235 252 314 314 317 214 199 238 200 207 195 201 210 184 195 177 182 176 189 160 210 214 218 217 218 217 220 224 224 224 224 228 232 230 236 237 242 243 244 251 255 256
217 235 235 230 245 230 223 251 309 250 300 236 205 225 199 171 205 212 212 198 187 191 178 186 185 187 164 213 222 223 223 224 224 228 232 234 234 234 235 238 241 245 248 244 248 250 250
219 214 237 234 206 235 218 199 219 305 271 231 206 217 200 201 203 212 212 188 208 197 196 194 181 208 191 185 201 214 218 231 232 232 234 236 237 240 242 245 246 244 248 244 251 253 244
214 214 197 227 211 215 208 206 196 252 309 202 243 219 192 214 211 209 238 217 216 230 212 204 209 197 195 195 186 194 189 192 206 194 205 215 218 221 227 236 232 230 230 239 238 235 235
210 213 211 225 210 209 212 208 187 200 275 233 209 230 226 222 201 214 213 214 210 220 229 229 208 204 213 205 209 208 210 208 208 211 205 210 237 223 222 223 227 230 253 247 236 271 275
210 219 210 215 220 228 221 211 210 200 196 251 214 216 221 206 225 215 219 217 219 220 223 229 227 229 221 214 216 210 215 213 210 216 221 217 219 226 221 224 235 231 235 241 258 250 247
211 211 212 205 221 222 227 217 217 216 212 194 224 210 219 221 222 216 220 224 219 191 217 224 226 237 232 234 227 222 226 229 224 246 227 234 246 246 251 238 250 238 254 256 264 263 258
210 213 222 208 207 216 224 222 213 218 222 196 195 217 218 225 223 219 221 203 229 230 234 195 216 227 235 240 240 208 223 231 234 218 237 241 250 244 246 252 248 251 253 264 264 264 264